Location: DARK SKY Beskydy - Park tmavé oblohy, www.darkskybeskydy.cz
(49.4926°N, 18.5016°E)
Time: 18:44:49
(UTC+02:00)

PCSat - Pass Details

Date: 07 August 2024
Orbit: 781 x 793 km, 67.1° (Epoch: 08 September)

Event Time Altitude Azimuth Distance (km) Brightness Sun altitude
Rises 00:54:51 0° 324° (NW) 3,300 13.6 -24.2°
Reaches altitude 10° 00:57:53 10° 341° (NNW) 2,369 13.0 -24.1°
Maximum altitude 01:01:56 21° 29° (NNE) 1,733 12.0 -24.1°
Drops below altitude 10° 01:05:59 10° 78° (ENE) 2,363 12.2 -24.1°
Sets 01:09:00 0° 94° (E) 3,289 12.8 -24.1°
